Temperature
9 9 9 8 8 8 8 8 8 8 8 8 8 8 8 8 7 7 7 7 7 7 7 7 7 7 6 6 6 6 6 6 5 6 6 6 6 6 6 6 6 6 6
8 8 8 8 8 8 8 8 8 8 8 7 7 7 7 7 7 7 7 6 6 6 6 6 6 6 6 6 6 6 6 5 5 5 5 5 6 6 6 6 6 6 6
8 8 8 8 8 7 7 7 7 7 7 7 7 7 7 7 6 6 6 6 6 6 6 6 6 6 6 6 5 5 5 5 5 5 5 5 5 5 5 5 5 5 5
7 7 7 7 7 7 7 7 7 7 7 7 7 7 6 6 6 6 6 6 6 6 6 6 5 5 5 5 5 5 5 5 5 4 5 5 5 5 5 5 5 5 5
6 6 7 6 6 6 6 6 6 6 6 6 6 6 6 6 6 6 6 6 6 5 5 5 5 5 5 5 5 5 5 4 4 4 4 4 4 4 4 4 4 4 5
6 6 6 6 6 6 6 6 6 6 6 6 6 6 6 6 6 5 5 5 5 5 5 5 5 5 5 4 4 4 4 4 4 4 4 3 4 4 4 4 4 4 3
5 5 5 5 5 5 5 5 5 5 5 5 5 5 5 5 5 5 5 4 4 4 4 4 4 4 4 4 4 4 4 4 4 3 3 3 3 3 3 3 3 3 3
5 5 5 5 5 5 5 5 5 4 4 5 5 5 5 5 5 4 4 4 4 3 3 3 3 3 3 3 3 3 3 3 3 3 3 3 3 3 3 3 3 3 3
4 4 4 4 4 4 4 4 4 4 4 4 4 4 4 4 4 4 3 3 3 3 3 3 3 3 3 3 3 3 3 3 3 3 3 3 3 3 2 2 2 2 2
3 3 3 3 3 3 3 3 3 3 3 3 3 4 3 3 3 3 3 2 2 2 2 3 3 2 2 2 2 2 2 2 2 2 2 2 2 2 2 2 2 1 1
3 3 3 3 3 3 3 3 3 3 3 3 3 3 3 3 3 3 2 2 2 2 2 2 2 2 2 2 2 1 2 2 2 2 2 2 2 2 2 2 1 1 1
2 2 2 2 2 2 2 2 2 2 2 2 2 2 2 2 2 2 2 1 1 1 1 1 1 1 1 1 1 1 1 1 1 1 1 1 1 1 1 1 1 1 0
2 2 2 2 2 2 2 2 2 2 1 1 1 1 1 1 1 1 1 1 1 1 1 1 1 1 1 1 0 1 1 0 1 1 1 1 1 1 1 0 0 -0 -0
1 1 1 1 1 1 1 1 1 1 1 1 1 1 1 1 1 0 0 0 0 0 0 -0 -0 -0 -0 -0 -0 -0 -0 0 0 0 0 0 0 0 -0 -0 -1 -1 -1
0 0 0 0 0 0 0 1 1 1 0 0 0 0 -0 0 0 -0 -0 -0 -0 -0 -1 -1 -1 -1 -1 -1 -0 -1 -1 -1 -0 -0 -0 -0 -1 -1 -1 -1 -1 -1 -1
-0 -0 -0 -1 -0 -0 -0 -0 0 0 0 -0 -0 -0 -1 -0 -0 -0 -1 -1 -1 -1 -1 -1 -1 -1 -1 -1 -1 -1 -1 -1 -1 -1 -1 -1 -1 -1 -1 -2 -2 -2 -2
-1 -1 -1 -1 -1 -1 -1 -1 -1 -0 -0 -1 -0 -1 -1 -1 -1 -1 -1 -1 -1 -1 -2 -2 -1 -1 -1 -1 -1 -1 -1 -1 -1 -1 -1 -1 -2 -2 -2 -2 -2 -2 -2
-1 -1 -2 -1 -2 -2 -2 -2 -1 -1 -1 -1 -1 -1 -1 -1 -1 -1 -1 -2 -2 -2 -2 -2 -2 -1 -1 -1 -1 -1 -1 -1 -2 -2 -2 -2 -2 -2 -2 -3 -3 -3 -3
-2 -2 -2 -2 -2 -2 -2 -2 -2 -2 -2 -2 -2 -2 -2 -2 -2 -2 -2 -2 -2 -2 -2 -2 -2 -2 -2 -1 -2 -2 -2 -2 -2 -2 -2 -2 -2 -3 -3 -3 -3 -3 -3
-2 -2 -3 -3 -3 -3 -3 -3 -3 -3 -3 -3 -3 -2 -2 -2 -2 -2 -2 -2 -2 -2 -2 -2 -2 -2 -2 -2 -2 -2 -2 -2 -2 -2 -2 -3 -3 -3 -3 -3 -3 -3 -3
-3 -3 -3 -3 -3 -3 -3 -3 -3 -3 -3 -3 -3 -3 -3 -3 -3 -3 -3 -3 -3 -3 -2 -2 -2 -2 -2 -2 -2 -2 -2 -2 -2 -3 -3 -3 -3 -3 -3 -3 -3 -3 -4
-3 -4 -4 -4 -4 -4 -4 -4 -4 -4 -4 -4 -3 -3 -3 -3 -3 -3 -3 -3 -3 -3 -3 -3 -3 -3 -2 -2 -2 -2 -2 -3 -3 -3 -3 -3 -3 -3 -3 -3 -4 -4 -4
-4 -4 -4 -4 -4 -4 -4 -4 -4 -4 -4 -4 -4 -4 -3 -3 -3 -3 -3 -3 -3 -3 -3 -3 -3 -3 -3 -3 -3 -3 -3 -3 -3 -3 -3 -3 -3 -3 -3 -3 -4 -4 -4
-4 -4 -4 -4 -4 -4 -4 -4 -4 -4 -4 -4 -4 -4 -4 -4 -4 -3 -3 -3 -3 -3 -3 -3 -3 -3 -3 -3 -3 -3 -3 -3 -3 -3 -3 -3 -3 -3 -3 -4 -4 -4 -4
-4 -5 -5 -5 -5 -5 -5 -5 -5 -5 -5 -4 -4 -4 -4 -4 -4 -4 -4 -4 -4 -4 -4 -4 -4 -4 -3 -3 -3 -3 -3 -3 -3 -3 -3 -3 -4 -4 -4 -4 -4 -4 -5
-5 -5 -5 -5 -5 -5 -5 -5 -5 -5 -5 -5 -4 -4 -4 -4 -4 -4 -4 -4 -4 -4 -4 -4 -4 -4 -4 -4 -3 -3 -4 -4 -3 -3 -4 -4 -4 -4 -4 -4 -4 -5 -5
Wind_Speed
1 2 2 2 2 3 3 4 4 4 4 4 4 4 4 4 5 5 5 5 6 6 6 7 7 7 6 5 5 5 6 6 8 6 5 4 5 5 4 5 5 5 5
1 2 2 2 2 3 4 4 4 4 4 4 4 5 5 5 5 6 6 6 7 7 7 7 8 6 7 6 6 6 6 6 7 8 6 5 6 5 5 5 4 5 5
1 1 2 2 3 3 4 4 4 4 4 4 5 5 6 6 6 7 7 7 8 8 8 8 8 8 8 7 7 7 6 6 6 7 6 4 4 4 5 5 5 5 5
2 2 3 3 3 3 3 4 4 4 4 5 5 6 6 6 6 7 7 8 8 8 8 9 9 9 9 9 8 8 7 7 7 7 6 5 4 4 4 4 4 4 4
3 3 3 4 3 3 3 4 4 4 4 4 5 5 6 6 6 7 7 8 8 8 8 9 9 9 9 9 8 8 7 7 6 6 6 6 5 4 4 4 5 4 5
4 4 4 4 4 4 4 4 4 4 4 5 5 5 6 5 7 8 8 8 8 9 9 9 9 9 10 12 12 11 10 9 9 8 7 8 7 6 5 4 4 4 3
4 5 4 4 5 5 4 4 5 5 5 5 6 6 7 7 8 9 9 8 9 9 9 8 7 7 9 9 10 11 12 13 13 10 9 9 8 6 6 6 5 5 5
5 5 5 5 5 5 5 5 5 5 5 6 6 7 7 7 8 9 10 9 9 9 9 10 9 9 8 8 8 9 9 10 10 10 10 9 7 6 6 6 5 5 4
5 6 6 5 6 6 6 6 6 6 6 6 7 7 8 8 8 9 9 7 8 9 9 9 10 10 9 9 9 9 9 9 8 9 9 8 7 6 5 4 4 4 4
6 6 6 6 6 7 7 7 6 6 7 7 7 7 8 9 9 10 10 7 8 8 8 9 10 12 11 10 10 9 10 9 7 7 8 7 6 6 7 6 5 5 3
7 7 7 7 7 7 7 7 6 6 7 7 8 8 8 9 9 10 10 8 8 8 8 7 8 10 12 12 11 10 10 8 6 6 6 5 4 4 4 4 4 5 5
7 7 8 8 7 6 7 7 7 7 7 8 8 8 7 8 9 9 11 11 10 9 9 8 7 9 11 12 10 10 10 8 5 5 5 5 5 4 3 3 4 4 4
8 8 8 8 8 7 7 8 7 7 7 7 7 8 8 7 7 10 12 13 12 10 8 9 10 10 10 10 11 11 9 7 5 5 6 5 4 3 3 3 3 3 4
8 9 8 8 8 8 7 7 7 7 7 8 8 8 8 8 7 7 7 8 9 9 8 9 11 11 10 9 8 7 7 6 6 6 5 4 3 3 4 3 3 3 3
9 9 9 8 9 8 8 8 9 9 9 9 9 9 9 10 9 10 9 8 7 7 7 6 6 6 7 6 6 6 5 5 6 5 5 4 4 4 4 3 3 3 4
9 9 8 7 7 7 8 8 10 12 13 14 14 13 11 13 14 14 14 14 13 12 9 7 8 7 8 7 6 6 6 6 6 5 5 5 5 5 4 4 3 4 5
9 9 8 8 8 8 8 8 9 9 12 14 16 16 15 15 15 16 15 14 15 13 9 9 8 8 7 7 6 6 6 6 5 6 6 6 5 5 5 5 5 5 5
9 9 9 8 8 8 8 9 9 9 9 9 10 13 15 15 15 15 14 12 10 9 8 9 8 8 7 7 7 6 6 5 5 6 6 6 6 6 6 6 6 6 5
9 8 8 8 8 8 9 9 9 10 10 10 9 9 11 12 13 13 11 9 9 8 8 8 8 7 7 7 7 7 6 6 6 6 6 7 6 6 6 6 6 7 6
9 10 10 9 8 9 9 9 9 9 9 9 9 9 7 7 7 7 8 8 8 8 8 8 8 7 7 7 7 6 6 6 7 7 7 7 7 7 7 7 6 6 6
8 9 9 9 9 9 9 9 9 9 9 10 10 10 10 8 9 9 8 8 8 8 8 7 7 7 7 6 6 7 8 7 7 7 7 7 7 6 6 6 6 6 5
8 8 8 9 9 9 9 9 9 10 10 11 9 9 12 10 9 9 9 8 8 8 7 7 7 7 7 7 7 7 7 8 7 7 7 7 7 7 6 6 6 6 5
8 9 9 9 9 10 10 9 9 10 10 10 9 9 8 9 9 9 9 8 7 7 6 6 7 6 6 6 6 7 8 8 8 8 8 7 7 7 7 7 7 6 6
9 9 10 9 9 9 9 10 9 10 10 10 9 9 9 9 9 9 8 8 7 7 6 6 7 8 7 6 6 7 7 7 8 8 9 8 8 7 7 6 7 7 6
9 9 9 9 9 10 10 10 9 10 10 9 9 9 9 9 9 8 8 7 7 7 7 7 6 7 8 9 8 7 9 11 10 8 8 8 8 8 8 7 7 6 6
9 9 9 9 9 9 9 9 10 10 9 9 9 9 9 8 8 8 7 7 6 6 7 6 7 8 8 8 9 10 10 11 12 11 9 7 8 8 8 7 8 7 6
Wind_Direction
240 232 224 229 228 229 233 240 243 244 236 234 241 244 248 251 249 246 248 252 251 253 250 250 253 254 254 251 247 244 245 249 260 269 269 273 272 270 271 273 272 269 264
255 247 240 238 234 242 246 247 246 246 246 243 242 244 248 250 250 248 249 249 251 254 254 251 252 250 250 251 249 245 244 245 255 266 266 265 267 272 274 276 277 271 272
262 252 250 246 240 247 257 258 252 251 253 250 243 243 246 248 248 248 249 252 253 255 255 252 252 250 250 247 247 247 246 246 249 259 265 264 262 263 272 273 272 273 274
273 261 258 260 256 255 258 257 253 251 253 254 251 251 251 251 250 251 251 253 255 255 254 253 252 250 251 250 247 246 245 246 247 252 259 261 260 262 264 269 271 270 273
269 264 264 270 268 262 261 263 261 258 259 261 261 260 257 253 250 251 253 253 255 257 256 253 252 251 254 253 249 247 243 243 245 248 253 255 252 253 253 258 263 280 278
267 266 267 271 272 268 267 269 266 263 263 263 260 260 259 256 257 256 259 258 256 255 257 258 255 250 248 247 247 248 245 243 243 244 250 252 253 249 250 252 264 275 271
268 271 272 270 271 271 269 266 265 267 268 266 265 262 262 263 259 260 259 259 257 256 256 258 257 251 246 249 245 242 243 242 243 246 250 253 257 250 244 243 244 256 264
270 273 276 272 270 271 268 266 269 270 266 265 265 264 264 264 263 263 264 260 258 256 254 254 256 257 250 248 250 248 247 244 241 242 248 255 258 254 242 247 254 263 276
271 274 275 271 267 268 267 267 269 268 267 266 265 264 264 266 262 263 265 263 259 257 256 254 254 255 251 246 248 250 252 251 240 237 247 250 252 245 235 231 229 245 262
269 272 272 268 262 263 266 268 268 265 266 268 266 263 263 265 263 260 261 259 259 260 258 254 248 251 253 246 246 247 250 252 245 240 239 239 241 232 216 223 225 233 249
273 272 270 266 263 263 265 266 266 265 266 265 266 266 263 262 260 257 256 255 257 260 259 256 251 247 251 248 247 247 248 249 241 236 237 237 235 230 221 226 231 231 237
272 270 270 269 268 264 262 263 262 261 262 265 266 269 266 262 259 257 254 254 258 258 259 258 255 252 254 251 248 247 244 240 234 227 231 233 229 227 226 228 232 239 246
270 271 272 272 269 263 259 259 258 256 256 261 263 267 270 269 264 259 258 257 255 255 259 257 259 257 255 253 246 240 233 230 224 225 230 233 228 223 215 218 228 234 252
268 271 271 269 269 265 260 254 253 253 254 257 260 264 269 269 266 263 261 258 254 256 258 257 253 252 247 245 241 234 230 227 224 229 231 226 212 207 215 217 224 227 251
268 270 269 266 266 266 262 257 254 253 251 254 260 261 264 266 263 260 263 261 256 256 258 256 252 248 244 237 232 228 224 221 221 220 219 217 213 213 219 216 223 228 241
266 267 267 265 264 264 267 269 252 249 256 255 256 259 263 264 269 266 264 263 262 259 255 249 246 243 241 236 230 227 224 223 220 215 216 217 217 217 219 216 221 228 238
264 266 266 264 263 263 265 268 275 266 250 251 254 257 259 266 268 265 264 262 260 253 249 246 244 241 239 234 228 226 226 222 215 213 215 215 215 216 217 220 220 228 236
265 264 262 263 262 262 263 263 265 270 277 274 261 257 260 262 265 264 260 259 255 244 243 243 240 238 235 231 227 224 221 216 215 217 216 213 212 213 217 220 221 226 234
266 264 263 263 261 261 262 262 262 264 267 272 276 270 261 262 263 259 252 248 249 247 243 241 239 236 233 228 224 220 217 217 215 213 215 212 210 212 218 219 220 222 230
267 260 259 264 263 262 261 261 261 262 264 266 267 269 269 265 264 258 248 246 248 248 244 242 239 236 232 227 222 216 214 214 211 213 212 211 210 211 217 217 218 220 226
269 267 259 262 262 261 260 260 260 261 262 264 264 262 259 258 259 257 253 250 248 248 245 243 242 238 234 228 220 214 212 214 212 211 210 210 208 210 212 214 215 219 221
266 267 266 263 263 261 261 261 261 262 263 265 267 265 260 255 255 255 253 251 250 248 244 241 241 238 231 223 217 214 214 215 211 207 207 207 206 206 206 209 212 214 214
264 264 264 263 262 262 263 261 261 260 262 263 264 263 259 254 254 253 252 252 249 246 241 237 239 239 233 222 215 212 214 214 209 202 202 203 203 203 204 206 207 209 212
262 262 263 264 263 261 261 261 260 260 262 263 262 260 258 256 254 253 252 251 249 247 241 238 237 235 229 222 218 217 216 210 201 199 198 199 200 201 201 202 204 207 209
263 262 262 262 261 260 260 260 260 261 262 261 261 260 258 256 255 253 251 248 246 246 243 239 237 234 229 221 218 217 215 206 201 198 194 198 198 198 197 198 199 199 201
264 263 262 261 260 259 259 259 260 261 261 261 261 259 257 256 254 252 248 244 243 243 241 239 235 231 226 221 218 216 212 208 204 199 195 195 194 194 192 195 193 194 193
Height
1480 1480 1481 1481 1481 1481 1481 1481 1481 1481 1481 1480 1480 1480 1479 1479 1479 1479 1479 1479 1480 1479 1479 1478 1478 1478 1477 1476 1476 1475 1475 1474 1473 1471 1470 1469 1468 1467 1466 1466 1465 1464 1464
1478 1478 1478 1478 1478 1478 1478 1478 1478 1478 1477 1477 1476 1476 1476 1476 1476 1475 1475 1475 1475 1475 1474 1474 1474 1473 1472 1472 1471 1471 1470 1469 1469 1467 1466 1465 1464 1463 1462 1461 1461 1460 1459
1475 1475 1475 1475 1475 1475 1474 1474 1474 1474 1474 1473 1473 1472 1472 1472 1472 1471 1471 1471 1471 1470 1470 1469 1469 1468 1467 1467 1466 1466 1465 1465 1464 1463 1461 1460 1459 1458 1458 1457 1456 1455 1454
1472 1472 1472 1472 1471 1471 1471 1471 1470 1470 1470 1469 1469 1468 1468 1467 1467 1467 1467 1466 1466 1465 1465 1464 1463 1463 1462 1462 1461 1461 1460 1460 1459 1458 1456 1456 1455 1454 1453 1452 1451 1451 1450
1469 1468 1468 1468 1467 1467 1467 1467 1466 1466 1465 1465 1464 1464 1463 1463 1462 1462 1462 1461 1460 1460 1459 1458 1458 1457 1457 1457 1456 1455 1455 1454 1454 1453 1452 1451 1450 1449 1449 1448 1447 1446 1444
1465 1464 1464 1464 1463 1463 1462 1462 1461 1461 1460 1460 1459 1458 1458 1458 1457 1457 1456 1455 1454 1454 1453 1452 1452 1451 1451 1451 1450 1450 1450 1449 1448 1448 1447 1446 1445 1445 1444 1443 1442 1441 1440
1461 1460 1460 1459 1459 1458 1458 1457 1456 1456 1455 1455 1454 1453 1453 1452 1452 1451 1450 1450 1449 1448 1447 1446 1446 1445 1445 1444 1444 1443 1443 1443 1443 1443 1442 1441 1441 1440 1440 1439 1438 1437 1435
1457 1456 1455 1455 1454 1454 1453 1452 1452 1451 1450 1449 1449 1448 1447 1447 1446 1445 1445 1444 1443 1442 1441 1440 1440 1439 1438 1438 1438 1437 1437 1437 1437 1436 1436 1436 1436 1436 1435 1434 1433 1432 1431
1452 1451 1451 1450 1449 1449 1448 1448 1447 1446 1445 1444 1443 1442 1441 1440 1440 1439 1439 1437 1436 1435 1435 1434 1433 1433 1432 1432 1432 1431 1430 1430 1430 1430 1430 1430 1430 1430 1429 1429 1428 1427 1425
1448 1447 1446 1445 1445 1444 1443 1443 1442 1441 1439 1438 1437 1437 1436 1435 1434 1434 1433 1431 1430 1429 1428 1427 1427 1427 1426 1426 1425 1425 1424 1424 1424 1424 1424 1424 1424 1424 1424 1423 1423 1422 1421
1443 1442 1441 1440 1439 1439 1438 1437 1436 1435 1434 1433 1432 1431 1430 1429 1428 1427 1427 1425 1424 1423 1422 1421 1421 1420 1420 1419 1419 1419 1418 1419 1418 1418 1418 1418 1418 1418 1418 1418 1418 1417 1416
1438 1437 1436 1435 1434 1433 1432 1431 1431 1430 1428 1427 1426 1425 1424 1423 1422 1421 1420 1419 1418 1417 1415 1414 1414 1414 1413 1413 1413 1412 1413 1413 1412 1412 1412 1412 1413 1413 1413 1413 1412 1412 1412
1432 1431 1430 1429 1428 1427 1426 1425 1424 1424 1422 1421 1420 1418 1417 1416 1415 1414 1413 1412 1411 1410 1409 1408 1407 1407 1407 1406 1406 1406 1407 1407 1406 1406 1406 1407 1407 1408 1408 1408 1407 1407 1407
1426 1425 1424 1423 1421 1421 1420 1419 1418 1417 1416 1415 1413 1412 1410 1409 1408 1407 1406 1405 1404 1403 1402 1401 1401 1400 1400 1400 1400 1400 1400 1400 1400 1401 1401 1402 1402 1402 1403 1403 1402 1402 1402
1419 1418 1417 1416 1415 1414 1413 1412 1411 1410 1409 1408 1407 1405 1404 1402 1401 1401 1399 1398 1397 1397 1396 1395 1394 1394 1393 1393 1393 1393 1394 1394 1394 1395 1396 1396 1397 1397 1398 1398 1398 1398 1397
1413 1412 1411 1409 1408 1407 1405 1404 1403 1403 1402 1401 1399 1398 1396 1395 1394 1393 1392 1391 1391 1390 1389 1388 1387 1387 1387 1386 1386 1387 1387 1388 1388 1389 1390 1391 1391 1392 1392 1393 1393 1393 1393
1407 1405 1404 1403 1401 1400 1399 1397 1396 1395 1394 1393 1391 1390 1389 1387 1386 1385 1384 1384 1383 1383 1382 1381 1381 1380 1380 1380 1380 1381 1381 1382 1383 1383 1384 1385 1386 1387 1387 1388 1388 1388 1388
1400 1399 1397 1396 1395 1393 1392 1390 1389 1387 1386 1384 1383 1382 1380 1379 1378 1378 1377 1377 1375 1375 1374 1374 1373 1374 1373 1374 1374 1375 1376 1376 1377 1378 1378 1379 1380 1381 1382 1383 1383 1383 1384
1393 1392 1390 1389 1388 1386 1385 1383 1382 1380 1378 1376 1375 1374 1373 1372 1371 1370 1370 1369 1368 1367 1367 1367 1367 1367 1367 1367 1368 1369 1369 1370 1371 1372 1373 1374 1375 1376 1377 1378 1378 1379 1379
1386 1385 1383 1382 1380 1379 1377 1376 1374 1373 1371 1369 1367 1366 1366 1365 1363 1363 1362 1362 1361 1360 1360 1360 1360 1360 1361 1361 1362 1362 1363 1364 1365 1366 1367 1368 1369 1371 1372 1373 1373 1374 1374
1379 1377 1376 1374 1373 1371 1370 1369 1367 1366 1364 1362 1361 1360 1359 1358 1357 1356 1355 1355 1354 1354 1353 1354 1354 1354 1354 1355 1356 1356 1357 1358 1359 1360 1362 1363 1364 1365 1366 1368 1368 1369 1370
1371 1370 1368 1367 1365 1364 1362 1361 1360 1358 1357 1355 1354 1353 1352 1351 1350 1349 1348 1348 1347 1347 1347 1347 1347 1347 1348 1349 1350 1351 1351 1352 1353 1354 1356 1357 1359 1360 1361 1362 1363 1364 1365
1364 1362 1361 1359 1358 1356 1355 1354 1352 1351 1350 1348 1347 1346 1345 1344 1343 1342 1342 1341 1341 1341 1341 1341 1341 1341 1342 1343 1344 1345 1345 1346 1348 1349 1350 1352 1353 1355 1356 1357 1359 1360 1361
1357 1355 1353 1352 1350 1349 1347 1346 1345 1344 1343 1341 1340 1339 1338 1337 1336 1335 1335 1335 1334 1334 1334 1334 1334 1335 1336 1337 1338 1339 1340 1341 1342 1344 1345 1347 1348 1350 1351 1353 1354 1355 1357
1349 1347 1346 1344 1343 1342 1340 1339 1338 1337 1336 1334 1333 1332 1331 1330 1329 1329 1328 1328 1328 1327 1328 1328 1328 1329 1330 1331 1332 1333 1334 1336 1337 1338 1340 1342 1343 1345 1346 1348 1350 1351 1353
1342 1340 1338 1337 1336 1334 1333 1332 1330 1329 1328 1327 1326 1325 1324 1323 1323 1322 1322 1321 1321 1321 1322 1322 1323 1323 1324 1325 1326 1328 1329 1331 1332 1334 1335 1337 1339 1340 1342 1344 1345 1347 1348